Regional Weather Roundup
Issued by NWS Charleston, SC

Current Version | Previous Version | Graphics & Text | Print | Product List | Glossary On
Versions: 1 2 3 4 5 6 7 8 9 10 11 12 13 14 15 16 17 18 19 20 21 22 23 24 25 26 27 28 29 30 31 32 33 34 35 36 37 38 39 40 41 42 43 44 45 46 47 48 49 50
000
ASUS42 KCHS 011611
RWRCHS

REGIONAL WEATHER ROUNDUP
NATIONAL WEATHER SERVICE CHARLESTON SC
1200 PM EDT WED APR 01 2015

NOTE: "FAIR" INDICATES FEW OR NO CLOUDS BELOW 12,000 FEET WITH NO
SIGNIFICANT WEATHER AND/OR OBSTRUCTIONS TO VISIBILITY.

NOT ALL STATIONS ARE QUALITY CONTROLLED BY THE NATIONAL
WEATHER SERVICE. USE DATA WITH CAUTION...ESPECIALLY
DEWPOINT OBSERVATIONS.

SCZ027-030-031-034>040-042>050-011700-
...SOUTHEAST SOUTH CAROLINA...

CITY           SKY/WX    TMP DP  RH WIND       PRES   REMARKS
N CHARLESTON   CLOUDY    64  60  87 N5        30.05F
WATERFRONT PRK   N/A     64 N/A N/A N6          N/A
MOUNT PLEASANT PTSUNNY   63  61  94 CALM      30.05S
PINOPOLIS        N/A     66  57  72 VRB3      29.97R
MONCKS CORNER  CLOUDY    66  55  68 N3        30.06R
SUMMERVILLE    CLOUDY    64  57  77 N5        30.06S
BEAUFORT MCAS  CLOUDY    67  59  75 W6        30.06R
BEAUFORT ARPT  PTSUNNY   66  61  82 CALM      30.05R HAZE
HILTON HEAD IS PTSUNNY   66  57  72 N5        30.07R
WALTERBORO     CLOUDY    64  55  72 CALM      30.05F
ALLENDALE      FAIR      72  59  64 CALM      30.04S

...SOUTHERN MIDLANDS AND PEE DEE...

CITY           SKY/WX    TMP DP  RH WIND       PRES   REMARKS
GEORGETOWN     NOT AVBL
KINGSTREE      NOT AVBL
ORANGEBURG     PTSUNNY   71  57  61 N10       30.05S
BARNWELL       FAIR      72  59  64 N7        30.06S
AIKEN          FAIR      72  52  49 N3        30.08S
MANNING        FAIR      68  46  45 NE9       30.07R
COLUMBIA       MOSUNNY   72  40  31 NE9G16    30.06S
SUMTER         MOSUNNY   69  44  40 NE12      30.07R
FLORENCE       SUNNY     67  43  41 E14       30.10R
MYRTLE BEACH   MOSUNNY   61  46  59 E17       30.11R
N MYRTLE BEACH CLOUDY    61  47  59 E12       30.09R

$$

GAZ063-065-086>088-099>101-113>116-118-119-134>141-150-011700-
...SOUTHEAST GEORGIA...

CITY           SKY/WX    TMP DP  RH WIND       PRES   REMARKS
SAVANNAH ARPT  CLOUDY    65  59  81 NW6       30.07R
HUNTER AAF     PTSUNNY   67  59  74 W8        30.04S
FORT STEWART   PTSUNNY   69  58  69 NW8       30.05R
STATESBORO     PTSUNNY   64  60  87 W5        30.06F
SYLVANIA       PTSUNNY   68  60  75 SW5       30.06S
CLAXTON        FAIR      68  61  77 NW8       30.07S HAZE

...CSRA...CENTRAL AND FAR SOUTHEAST GEORGIA...

CITY           SKY/WX    TMP DP  RH WIND       PRES   REMARKS
THOMSON        SUNNY     75  62  64 CALM      30.09S
AUGUSTA-BUSH   SUNNY     74  55  51 N7        30.04S
AUGUSTA-DANIEL SUNNY     74  54  49 VRB6      30.05S
SWAINSBORO     PTSUNNY   70  52  52 N8        30.07S
VIDALIA        MOSUNNY   70  61  73 NW10G16   30.07F
EASTMAN        FAIR      73  59  62 W10       30.11R
HAZLEHURST     FAIR      73  59  60 N5        30.07S
ALMA           MOSUNNY   75  61  61 W7        30.07R
WAYCROSS       MOSUNNY   81  66  60 W12       30.06S
JESUP          PTSUNNY   75  64  69 NW6       30.06S
BAXLEY         PTSUNNY   73  63  68 NW9       30.07S
BRUNSWICK      MOSUNNY   77  63  61 W5        30.06S
SAINT SIMONS   MOSUNNY   75  62  64 VRB6      30.05S

$$

SCZ027-028-034-036>038-045-046-048>050-GAZ119-141-011700-
...LAKE AND SUPPLEMENTAL COASTAL OBSERVATIONS...

STATION/POSITION TIME  TEMP    WIND        PRES    WAVE   SWELL
                       AIR SEA DIR/SP/G            HT/PER HT/PER/DIR
                 (UTC) (F)     (DEG/KT/KT) (MB)    (FT/S) (FT/S/D)
UPR LAKE MARION  NOT AVBL
WINYAH BAY       1445   64      40/ 11     1016.0
LAKE MURRAY      1500   65      80/ 10/ 13 1017.6R
ACE BASIN NERRS  NOT AVBL
FORT PULASKI     1500   63 61  280/  8/  9 1018.1F
SAPELO ISLAND    1500   72     270/ 10     1017.0S

$$

ANZ835-935-AMZ111-154-330-350-352-354-370-450-454-472-011700-
...C-MAN AND BUOY OBSERVATIONS...

STATION/POSITION TIME  TEMP    WIND        PRES    WAVE   SWELL
                       AIR SEA DIR/SP/G            HT/PER HT/PER/DIR
                 (UTC) (F)     (DEG/KT/KT) (MB)    (FT/S) (FT/S/D)
BUOY 41004       1550   66 68  290/ 16/ 17 1017.7R   4/ 6   2/11
BUOY 41008       1550   64 62  280/  2/  4 1018.4R   2/ 5   2/140/ 5
FOLLY BEACH CMAN 1600   64     340/  5/  6 1017.4F
CAPERS NEARSHORE NOT AVBL
FRIPP NEARSHORE  1500   62     230/  8/  8 1017.7R


STATION/POSITION TIME  TEMP    WIND        PRES    WAVE   SWELL
                       AIR SEA DIR/SP/G            HT/PER HT/PER/DIR
                 (UTC) (F)     (DEG/KT/KT) (MB)    (FT/S) (FT/S/D)
5E ST. MARYS GA  1521      62                N/A     1/ 4
FRYING PAN BUOY  1550   59 63   50/ 23/ 27 1018.5R   6/ 5
BUOY 41025       NOT AVBL
CAPE LOOKOUT NC  1600   53      30/ 13/ 16 1020.0R
BUOY 41002       1550   66 69  270/ 12/ 21 1016.4R   8/ 8   7/250/ 8
BUOY 41010       1520   74 75  310/ 16/ 19 1020.0R
ST AUGUSTINE FL  1600   76 62  270/  9/ 15 1019.3F


$$


USA.gov is the U.S. government's official web portal to all federal, state and local government web resources and services.